Location: Newark
(52.3500°N, 175.9667°E)
Time: 09:49:47
(UTC+00:00)

Transit 4A - Pass Details

Date: 21 April 2021
Orbit: 870 x 974 km, 66.8° (Epoch: 07 May)

Event Time Altitude Azimuth Distance (km) Brightness Sun altitude
Rises 09:37:45 0° 148° (SSE) 3,622 - -17.3°
Reaches altitude 10° 09:42:40 10° 114° (ESE) 2,658 - -17.8°
Maximum altitude 09:44:08 11° 100° (E) 2,588 - -18.0°
Exits shadow 09:45:30 10° 87° (E) 2,638 9.9 -18.1°
Drops below altitude 10° 09:45:35 10° 86° (E) 2,645 9.9 -18.1°
Sets 09:50:25 0° 52° (NE) 3,566 11.0 -18.5°
